User: anonymous   Login
Location: Beadle
(51.4667°N, 109.0000°W)
Time: 01:27:19
(UTC+00:00)
Language:

XW-2D - Orbit

View from above orbital plane
View from above orbital plane
View from above satellite
View from above satellite

Ground track
Ground track

The orbit data is extracted from the following two-line orbital elements,

1 40907U 15049J   22180.54201051  .00004749  00000-0  22426-3 0  9993
2 40907  97.4908 183.8488 0011756 319.7980 156.4122 15.19860251374807
Epoch (UTC): 29 June 2022 13:00:29
Eccentricity: 0.0011756
inclination: 97.4908°
perigee height: 498 km
apogee height: 514 km
right ascension of ascending node: 183.8488°
argument of perigee: 319.7980°
revolutions per day: 15.19860251
mean anomaly at epoch: 156.4122°
orbit number at epoch: 37480

The dashed part of the orbit path shows where the satellite is in the earth's shadow,  

DLR